Year,Month,Day,Hour,Minute,Value (Times are PST for temperature in C)
2016,03,17,08,46,6.10
2016,03,17,08,47,6.10
2016,03,17,08,48,6.10
2016,03,17,08,49,6.10
2016,03,17,08,50,6.10
2016,03,17,08,51,6.10
2016,03,17,08,52,6.10
2016,03,17,08,53,6.10
2016,03,17,08,54,6.20
2016,03,17,08,55,6.20
2016,03,17,08,56,6.20
2016,03,17,08,57,6.20
2016,03,17,08,58,6.20
2016,03,17,08,59,6.20
2016,03,17,09,00,6.20
2016,03,17,09,01,6.20
2016,03,17,09,02,6.20
2016,03,17,09,03,6.30
2016,03,17,09,04,6.30
2016,03,17,09,05,6.20
2016,03,17,09,06,6.20
2016,03,17,09,07,6.20
2016,03,17,09,08,6.30
2016,03,17,09,09,6.30
2016,03,17,09,10,6.40
2016,03,17,09,11,6.40
2016,03,17,09,12,6.40
2016,03,17,09,13,6.40
2016,03,17,09,14,6.40
2016,03,17,09,15,6.30
2016,03,17,09,16,6.30
2016,03,17,09,17,6.30
2016,03,17,09,18,6.30
2016,03,17,09,19,6.30
2016,03,17,09,20,6.30
2016,03,17,09,21,6.30
2016,03,17,09,22,6.30
2016,03,17,09,23,6.30
2016,03,17,09,24,6.40
2016,03,17,09,25,6.40
2016,03,17,09,26,6.40
2016,03,17,09,27,6.50
2016,03,17,09,28,6.60
2016,03,17,09,29,6.60
2016,03,17,09,30,6.70
2016,03,17,09,31,6.70
2016,03,17,09,32,6.80
2016,03,17,09,33,6.80
2016,03,17,09,34,6.80
2016,03,17,09,35,6.80
2016,03,17,09,36,6.80
2016,03,17,09,37,6.80
2016,03,17,09,38,6.80
2016,03,17,09,39,6.90
2016,03,17,09,40,6.90
2016,03,17,09,41,6.90
2016,03,17,09,42,7.00
2016,03,17,09,43,7.00
2016,03,17,09,44,7.00
2016,03,17,09,45,7.00
2016,03,17,09,46,7.10
2016,03,17,09,47,7.00
2016,03,17,09,48,7.00
2016,03,17,09,49,7.00
2016,03,17,09,50,7.00
2016,03,17,09,51,7.00
2016,03,17,09,52,6.90
2016,03,17,09,53,6.90
2016,03,17,09,54,6.90
2016,03,17,09,55,7.00
2016,03,17,09,56,7.00
2016,03,17,09,57,7.00
2016,03,17,09,58,7.00
2016,03,17,09,59,7.00
2016,03,17,10,00,7.00
2016,03,17,10,01,7.10
2016,03,17,10,02,7.10
2016,03,17,10,03,7.10
2016,03,17,10,04,7.10
2016,03,17,10,05,7.20
2016,03,17,10,06,7.20
2016,03,17,10,07,7.30
2016,03,17,10,08,7.30
2016,03,17,10,09,7.30
2016,03,17,10,10,7.30
2016,03,17,10,11,7.30
2016,03,17,10,12,7.30
2016,03,17,10,13,7.30
2016,03,17,10,14,7.30
2016,03,17,10,15,7.30
2016,03,17,10,16,7.30
2016,03,17,10,17,7.30
2016,03,17,10,18,7.30
2016,03,17,10,19,7.40
2016,03,17,10,20,7.50
2016,03,17,10,21,7.50
2016,03,17,10,22,7.60
2016,03,17,10,23,7.50
2016,03,17,10,24,7.50
2016,03,17,10,25,7.50
2016,03,17,10,26,7.50
2016,03,17,10,27,7.50
2016,03,17,10,28,7.50
2016,03,17,10,29,7.60
2016,03,17,10,30,7.60
2016,03,17,10,31,7.70
2016,03,17,10,32,7.70
2016,03,17,10,33,7.70
2016,03,17,10,34,7.70
2016,03,17,10,35,7.60
2016,03,17,10,36,7.60
2016,03,17,10,37,7.60
2016,03,17,10,38,7.60
2016,03,17,10,39,7.60
2016,03,17,10,40,7.60
2016,03,17,10,41,7.70
2016,03,17,10,42,7.70
2016,03,17,10,43,7.70
2016,03,17,10,44,7.80
2016,03,17,10,45,7.80
2016,03,17,10,46,7.90
2016,03,17,10,47,8.00
2016,03,17,10,48,8.10
2016,03,17,10,49,8.10
2016,03,17,10,50,8.10
2016,03,17,10,51,8.10
2016,03,17,10,52,8.10
2016,03,17,10,53,8.10
2016,03,17,10,54,8.20
2016,03,17,10,55,8.20
2016,03,17,10,56,8.30
2016,03,17,10,57,8.30
2016,03,17,10,58,8.30
2016,03,17,10,59,8.30
2016,03,17,11,00,8.20
2016,03,17,11,01,8.20
2016,03,17,11,02,8.20
2016,03,17,11,03,8.20
2016,03,17,11,04,8.20
2016,03,17,11,05,8.20
2016,03,17,11,06,8.20
2016,03,17,11,07,8.20
2016,03,17,11,08,8.20
2016,03,17,11,09,8.30
2016,03,17,11,10,8.40
2016,03,17,11,11,8.40
2016,03,17,11,12,8.50
2016,03,17,11,13,8.40
2016,03,17,11,14,8.40
2016,03,17,11,15,8.40
2016,03,17,11,16,8.40
2016,03,17,11,17,8.50
2016,03,17,11,18,8.50
2016,03,17,11,19,8.50
2016,03,17,11,20,8.50
2016,03,17,11,21,8.50
2016,03,17,11,22,8.60
2016,03,17,11,23,8.50
2016,03,17,11,24,8.50
2016,03,17,11,25,8.40
2016,03,17,11,26,8.40
2016,03,17,11,27,8.40
2016,03,17,11,28,8.50
2016,03,17,11,29,8.50
2016,03,17,11,30,8.50
2016,03,17,11,31,8.60
2016,03,17,11,32,8.60
2016,03,17,11,33,8.60
2016,03,17,11,34,8.50
2016,03,17,11,35,8.60
2016,03,17,11,36,8.60
2016,03,17,11,37,8.50
2016,03,17,11,38,8.50
2016,03,17,11,39,8.50
2016,03,17,11,40,8.60
2016,03,17,11,41,8.60
2016,03,17,11,42,8.70
2016,03,17,11,43,8.70
2016,03,17,11,44,8.60
2016,03,17,11,45,8.60
2016,03,17,11,46,8.60
2016,03,17,11,47,8.60
2016,03,17,11,48,8.70
2016,03,17,11,49,8.70
2016,03,17,11,50,8.70
2016,03,17,11,51,8.70
2016,03,17,11,52,8.80
2016,03,17,11,53,8.80
2016,03,17,11,54,8.80
2016,03,17,11,55,8.80
2016,03,17,11,56,8.70
2016,03,17,11,57,8.60
2016,03,17,11,58,8.60
2016,03,17,11,59,8.60
2016,03,17,12,00,8.60
2016,03,17,12,01,8.60
2016,03,17,12,02,8.70
2016,03,17,12,03,8.70
2016,03,17,12,04,8.70
2016,03,17,12,05,8.70
2016,03,17,12,06,8.70
2016,03,17,12,07,8.70
2016,03,17,12,08,8.70
2016,03,17,12,09,8.70
2016,03,17,12,10,8.70
2016,03,17,12,11,8.80
2016,03,17,12,12,8.90
2016,03,17,12,13,9.00
2016,03,17,12,14,8.90
2016,03,17,12,15,8.90
2016,03,17,12,16,8.80
2016,03,17,12,17,8.80
2016,03,17,12,18,8.90
2016,03,17,12,19,8.90
2016,03,17,12,20,8.90
2016,03,17,12,21,9.00
2016,03,17,12,22,9.00
2016,03,17,12,23,9.00
2016,03,17,12,24,9.00
2016,03,17,12,25,9.00
2016,03,17,12,26,9.00
2016,03,17,12,27,9.00
2016,03,17,12,28,9.00
2016,03,17,12,29,9.00
2016,03,17,12,30,9.10
2016,03,17,12,31,9.10
2016,03,17,12,32,9.10
2016,03,17,12,33,9.10
2016,03,17,12,34,9.10
2016,03,17,12,35,9.10
2016,03,17,12,36,9.10
2016,03,17,12,37,9.10
2016,03,17,12,38,9.10
2016,03,17,12,39,9.10
2016,03,17,12,40,9.10
2016,03,17,12,41,9.10
2016,03,17,12,42,9.10
2016,03,17,12,43,9.10
2016,03,17,12,44,9.20
2016,03,17,12,45,9.30
2016,03,17,12,46,9.30
2016,03,17,12,47,9.30
2016,03,17,12,48,9.30
2016,03,17,12,49,9.20
2016,03,17,12,50,9.40
2016,03,17,12,51,9.50
2016,03,17,12,52,9.50
2016,03,17,12,53,9.60
2016,03,17,12,54,9.60
2016,03,17,12,55,9.60
2016,03,17,12,56,9.60
2016,03,17,12,57,9.60
2016,03,17,12,58,9.60
2016,03,17,12,59,9.50
2016,03,17,13,00,9.50
2016,03,17,13,01,9.40
2016,03,17,13,02,9.30
2016,03,17,13,03,9.30
2016,03,17,13,04,9.30
2016,03,17,13,05,9.40
2016,03,17,13,06,9.40
2016,03,17,13,07,9.50
2016,03,17,13,08,9.60
2016,03,17,13,09,9.70
2016,03,17,13,10,9.80
2016,03,17,13,11,9.80
2016,03,17,13,12,9.70
2016,03,17,13,13,9.80
2016,03,17,13,14,9.80
2016,03,17,13,15,9.80
2016,03,17,13,16,9.70
2016,03,17,13,17,9.70
2016,03,17,13,18,9.70
2016,03,17,13,19,9.80
2016,03,17,13,20,9.80
2016,03,17,13,21,9.80
2016,03,17,13,22,9.80
2016,03,17,13,23,9.80
2016,03,17,13,24,9.80
2016,03,17,13,25,9.80
2016,03,17,13,26,9.80
2016,03,17,13,27,9.90
2016,03,17,13,28,9.90
2016,03,17,13,29,9.90
2016,03,17,13,30,9.90
2016,03,17,13,31,9.90
2016,03,17,13,32,9.90
2016,03,17,13,33,9.90
2016,03,17,13,34,9.90
2016,03,17,13,35,9.90
2016,03,17,13,36,10.10
2016,03,17,13,37,10.10
2016,03,17,13,38,10.20
2016,03,17,13,39,10.20
2016,03,17,13,40,10.30
2016,03,17,13,41,10.40
2016,03,17,13,42,10.40
2016,03,17,13,43,10.20
2016,03,17,13,44,10.10
2016,03,17,13,45,10.10
2016,03,17,13,46,10.10
2016,03,17,13,47,10.10
2016,03,17,13,48,10.10
2016,03,17,13,49,10.10
2016,03,17,13,50,10.10
2016,03,17,13,51,10.10
2016,03,17,13,52,10.10
2016,03,17,13,53,10.10
2016,03,17,13,54,10.20
2016,03,17,13,55,10.30
2016,03,17,13,56,10.30
2016,03,17,13,57,10.40
2016,03,17,13,58,10.40
2016,03,17,13,59,10.40
2016,03,17,14,00,10.40
2016,03,17,14,01,10.30
2016,03,17,14,02,10.20
2016,03,17,14,03,10.20
2016,03,17,14,04,10.20
2016,03,17,14,05,10.20
2016,03,17,14,06,10.20
2016,03,17,14,07,10.20
2016,03,17,14,08,10.20
2016,03,17,14,09,10.30
2016,03,17,14,10,10.30
2016,03,17,14,11,10.30
2016,03,17,14,12,10.40
2016,03,17,14,13,10.40
2016,03,17,14,14,10.30
2016,03,17,14,15,10.30
2016,03,17,14,16,10.30
2016,03,17,14,17,10.20
2016,03,17,14,18,10.10
2016,03,17,14,19,10.10
2016,03,17,14,20,10.10
2016,03,17,14,21,10.20
2016,03,17,14,22,10.20
2016,03,17,14,23,10.20
2016,03,17,14,24,10.30
2016,03,17,14,25,10.30
2016,03,17,14,26,10.30
2016,03,17,14,27,10.40
2016,03,17,14,28,10.40
2016,03,17,14,29,10.40
2016,03,17,14,30,10.40
2016,03,17,14,31,10.40
2016,03,17,14,32,10.40
2016,03,17,14,33,10.50
2016,03,17,14,34,10.60
2016,03,17,14,35,10.60
2016,03,17,14,36,10.50
2016,03,17,14,37,10.40
2016,03,17,14,38,10.40
2016,03,17,14,39,10.40
2016,03,17,14,40,10.40
2016,03,17,14,41,10.40
2016,03,17,14,42,10.40
2016,03,17,14,43,10.40
2016,03,17,14,44,10.40
2016,03,17,14,45,10.40
2016,03,17,14,46,10.40
2016,03,17,14,47,10.50
2016,03,17,14,48,10.60
2016,03,17,14,49,10.70
2016,03,17,14,50,10.80
2016,03,17,14,51,10.80
2016,03,17,14,52,10.80
2016,03,17,14,53,10.80
2016,03,17,14,54,10.70
2016,03,17,14,55,10.60
2016,03,17,14,56,10.60
2016,03,17,14,57,10.60
2016,03,17,14,58,10.60
2016,03,17,14,59,10.50
2016,03,17,15,00,10.40
2016,03,17,15,01,10.40
2016,03,17,15,02,10.40
2016,03,17,15,03,10.40
2016,03,17,15,04,10.50
2016,03,17,15,05,10.60
2016,03,17,15,06,10.50
2016,03,17,15,07,10.40
2016,03,17,15,08,10.50
2016,03,17,15,09,10.60
2016,03,17,15,10,10.60
2016,03,17,15,11,10.60
2016,03,17,15,12,10.60
2016,03,17,15,13,10.60
2016,03,17,15,14,10.70
2016,03,17,15,15,10.70
2016,03,17,15,16,10.70
2016,03,17,15,17,10.70
2016,03,17,15,18,10.80
2016,03,17,15,19,10.90
2016,03,17,15,20,10.90
2016,03,17,15,21,10.90
2016,03,17,15,22,10.90
2016,03,17,15,23,11.00
2016,03,17,15,24,11.10
2016,03,17,15,25,11.10
2016,03,17,15,26,11.10
2016,03,17,15,27,11.10
2016,03,17,15,28,11.00
2016,03,17,15,29,10.90
2016,03,17,15,30,11.10
2016,03,17,15,31,11.10
2016,03,17,15,32,11.10
2016,03,17,15,33,11.10
2016,03,17,15,34,11.20
2016,03,17,15,35,11.30
2016,03,17,15,36,11.30
2016,03,17,15,37,11.20
2016,03,17,15,38,11.10
2016,03,17,15,39,11.10
2016,03,17,15,40,11.10
2016,03,17,15,41,11.10
2016,03,17,15,42,11.10
2016,03,17,15,43,11.10
2016,03,17,15,44,11.10
2016,03,17,15,45,11.10
2016,03,17,15,46,11.10
2016,03,17,15,47,11.00
2016,03,17,15,48,10.90
2016,03,17,15,49,10.90
2016,03,17,15,50,10.90
2016,03,17,15,51,10.80
2016,03,17,15,52,10.70
2016,03,17,15,53,10.70
2016,03,17,15,54,10.80
2016,03,17,15,55,10.80
2016,03,17,15,56,10.90
2016,03,17,15,57,10.90
2016,03,17,15,58,10.90
2016,03,17,15,59,10.90
2016,03,17,16,00,10.90
2016,03,17,16,01,10.90
2016,03,17,16,02,10.90
2016,03,17,16,03,10.90
2016,03,17,16,04,10.90
2016,03,17,16,05,10.90
2016,03,17,16,06,11.00
2016,03,17,16,07,11.10
2016,03,17,16,08,11.10
2016,03,17,16,09,10.90
2016,03,17,16,10,10.90
2016,03,17,16,11,10.90
2016,03,17,16,12,11.00
2016,03,17,16,13,11.10
2016,03,17,16,14,11.10
2016,03,17,16,15,11.00
2016,03,17,16,16,11.00
2016,03,17,16,17,11.10
2016,03,17,16,18,11.10
2016,03,17,16,19,11.10
2016,03,17,16,20,11.10
2016,03,17,16,21,11.10
2016,03,17,16,22,11.10
2016,03,17,16,23,11.10
2016,03,17,16,24,11.10
2016,03,17,16,25,11.10
2016,03,17,16,26,11.10
2016,03,17,16,27,11.20
2016,03,17,16,28,11.20
2016,03,17,16,29,11.30
2016,03,17,16,30,11.30
2016,03,17,16,31,11.30
2016,03,17,16,32,11.30
2016,03,17,16,33,11.30
2016,03,17,16,34,11.30
2016,03,17,16,35,11.30
2016,03,17,16,36,11.30
2016,03,17,16,37,11.30
2016,03,17,16,38,11.30
2016,03,17,16,39,11.30
2016,03,17,16,40,11.30
2016,03,17,16,41,11.30
2016,03,17,16,42,11.20
2016,03,17,16,43,11.30
2016,03,17,16,44,11.30
2016,03,17,16,45,11.30
2016,03,17,16,46,11.40
2016,03,17,16,47,11.40
2016,03,17,16,48,11.40
2016,03,17,16,49,11.30
2016,03,17,16,50,11.20
2016,03,17,16,51,11.20
2016,03,17,16,52,11.10
2016,03,17,16,53,11.10
2016,03,17,16,54,11.10
2016,03,17,16,55,11.10
2016,03,17,16,56,11.10
2016,03,17,16,57,11.10
2016,03,17,16,58,11.10
2016,03,17,16,59,11.00
2016,03,17,17,00,11.10
2016,03,17,17,01,11.10
2016,03,17,17,02,11.10
2016,03,17,17,03,11.10
2016,03,17,17,04,11.10
2016,03,17,17,05,11.10
2016,03,17,17,06,11.10
2016,03,17,17,07,11.10
2016,03,17,17,08,11.10
2016,03,17,17,09,11.10
2016,03,17,17,10,11.10
2016,03,17,17,11,11.10
2016,03,17,17,12,11.10
2016,03,17,17,13,11.10
2016,03,17,17,14,11.10
2016,03,17,17,15,11.10
2016,03,17,17,16,11.10
2016,03,17,17,17,11.10
2016,03,17,17,18,11.10
2016,03,17,17,19,11.10
2016,03,17,17,20,11.10
2016,03,17,17,21,11.10
2016,03,17,17,22,11.10
2016,03,17,17,23,11.10
2016,03,17,17,24,11.10
2016,03,17,17,25,11.10
2016,03,17,17,26,11.10
2016,03,17,17,27,11.10
2016,03,17,17,28,11.10
2016,03,17,17,29,11.10
2016,03,17,17,30,11.10
2016,03,17,17,31,11.10
2016,03,17,17,32,11.20
2016,03,17,17,33,11.20
2016,03,17,17,34,11.20
2016,03,17,17,35,11.20
2016,03,17,17,36,11.20
2016,03,17,17,37,11.30
2016,03,17,17,38,11.30
2016,03,17,17,39,11.20
2016,03,17,17,40,11.20
2016,03,17,17,41,11.20
2016,03,17,17,42,11.20
2016,03,17,17,43,11.20
2016,03,17,17,44,11.10
2016,03,17,17,45,11.10
2016,03,17,17,46,11.10
2016,03,17,17,47,11.10
2016,03,17,17,48,11.10
2016,03,17,17,49,11.10
2016,03,17,17,50,11.10
2016,03,17,17,51,11.10
2016,03,17,17,52,11.10
2016,03,17,17,53,11.10
2016,03,17,17,54,11.10
2016,03,17,17,55,11.10
2016,03,17,17,56,11.10
2016,03,17,17,57,11.10
2016,03,17,17,58,11.10
2016,03,17,17,59,11.10
2016,03,17,18,00,11.10
2016,03,17,18,01,11.10
2016,03,17,18,02,11.10
2016,03,17,18,03,11.00
2016,03,17,18,04,11.10
2016,03,17,18,05,11.10
2016,03,17,18,06,11.10
2016,03,17,18,07,11.10
2016,03,17,18,08,11.10
2016,03,17,18,09,11.10
2016,03,17,18,10,10.90
2016,03,17,18,11,10.90
2016,03,17,18,12,11.00
2016,03,17,18,13,11.10
2016,03,17,18,14,11.10
2016,03,17,18,15,11.10
2016,03,17,18,16,11.10
2016,03,17,18,17,10.90
2016,03,17,18,18,10.90
2016,03,17,18,19,10.90
2016,03,17,18,20,10.90
2016,03,17,18,21,10.90
2016,03,17,18,22,10.90
2016,03,17,18,23,10.90
2016,03,17,18,24,10.90
2016,03,17,18,25,10.90
2016,03,17,18,26,10.90
2016,03,17,18,27,10.90
2016,03,17,18,28,10.80
2016,03,17,18,29,10.80
2016,03,17,18,30,10.80
2016,03,17,18,31,10.90
2016,03,17,18,32,10.90
2016,03,17,18,33,10.80
2016,03,17,18,34,10.80
2016,03,17,18,35,10.80
2016,03,17,18,36,10.80
2016,03,17,18,37,10.80
2016,03,17,18,38,10.80
2016,03,17,18,39,10.70
2016,03,17,18,40,10.70
2016,03,17,18,41,10.70
2016,03,17,18,42,10.70
2016,03,17,18,43,10.60
2016,03,17,18,44,10.60
2016,03,17,18,45,10.60
2016,03,17,18,46,10.60
2016,03,17,18,47,10.60
2016,03,17,18,48,10.60
2016,03,17,18,49,10.60
2016,03,17,18,50,10.40
2016,03,17,18,51,10.40
2016,03,17,18,52,10.40
2016,03,17,18,53,10.40
2016,03,17,18,54,10.40
2016,03,17,18,55,10.40
2016,03,17,18,56,10.40
2016,03,17,18,57,10.40
2016,03,17,18,58,10.30
2016,03,17,18,59,10.30
2016,03,17,19,00,10.30
2016,03,17,19,01,10.30
2016,03,17,19,02,10.30
2016,03,17,19,03,10.30
2016,03,17,19,04,10.30
2016,03,17,19,05,10.30
2016,03,17,19,06,10.30
2016,03,17,19,07,10.30
2016,03,17,19,08,10.30
2016,03,17,19,09,10.30
